Regional Weather Roundup
Issued by NWS

Home | Current Version | Previous Version | Graphics & Text | Print | Product List | Glossary On
Versions: 1 2 3 4 5 6 7 8 9 10 11 12 13 14 15 16 17 18 19 20 21 22 23 24 25 26 27 28 29 30 31 32 33 34 35 36 37 38 39 40 41 42 43 44 45 46 47 48 49 50
000
ASUS43 KIND 220509
RWRIN

WEATHER ROUNDUP FOR INDIANA
NATIONAL WEATHER SERVICE INDIANAPOLIS IN
100 AM EDT TUE AUG 22 2017

NOTE: "FAIR" INDICATES FEW OR NO CLOUDS BELOW 12,000 FEET WITH NO
SIGNIFICANT WEATHER AND/OR OBSTRUCTIONS TO VISIBILITY.

* - STATION DOES NOT REPORT WEATHER SUCH AS PRECIPITATION OR FOG.

+ - STATION NOT QUALITY CONTROLLED BY THE NATIONAL WEATHER SERVICE.
    USE DATA WITH CAUTION...ESPECIALLY DEWPOINT AND RELATIVE
    HUMIDITY OBSERVATIONS.

INZ001>003-010>013-019-020-220600-
NORTHWEST INDIANA

CITY           SKY/WX    TMP DP  RH WIND       PRES   REMARKS
GARY /AIRPORT/ RAIN      78  71  78 W13G22    29.96R
KNOX *+        PTCLDY    72  70  94 S7        29.94F
LA PORTE +     CLEAR     73  68  84 S5        29.95F
MICHIGAN CITY+ PTCLDY    73  68  83 SW12      29.93F
MONTICELLO +   CLOUDY    73  70  91 S8        29.96F
RENSSELAER +   CLOUDY    73  64  73 S9        29.95F
VALPARAISO     PTCLDY    74  69  85 SW9       29.94F

$$

LMZ046-743>745-220600-
SOUTHERN LAKE MICHIGAN

STATION/POSITION TIME  TEMP    WIND        PRES    WAVE
                       AIR SEA DIR/SP/G            HT
                 (UTC) (F)     (DEG/KT/KT) (MB)    (FT)
BURNS HARBOR     0440   76     190/ 13/ 17 1013.5F
MICHIGAN CITY    0440   76     180/ 11/ 13   N/A
5NW MICH CITY    0500   76 74  200/ 12/ 16   N/A     2

$$

INZ004-005-014>016-021>024-220600-
NORTH CENTRAL INDIANA

CITY           SKY/WX    TMP DP  RH WIND       PRES   REMARKS
GOSHEN         PTCLDY    73  68  84 S7        29.95F
LOGANSPORT +   CLOUDY    70  68  94 S6        29.99F
PERU/GRISSOM   CLOUDY    72  71  95 SW8       29.98F
ROCHESTER +    CLOUDY    77  70  78 S8        29.97F
SOUTH BEND     PTCLDY    73  71  93 S10       29.94F
WARSAW +       CLOUDY    73  68  83 SW7       29.97F

$$

INZ006>009-017-018-025>027-220600-
NORTHEAST INDIANA

CITY           SKY/WX    TMP DP  RH WIND       PRES   REMARKS
AUBURN +       CLOUDY    77  68  73 SW7       29.98F
FORT WAYNE     MOCLDY    73  69  87 SW8       29.99F
HUNTINGTON +   CLEAR     73  71  95 SW5       29.99F

$$

INZ028-029-035-036-043>045-051>053-220600-
WEST CENTRAL INDIANA

CITY           SKY/WX    TMP DP  RH WIND       PRES   REMARKS
GREENCASTLE +  CLEAR     70  70 100 S5        30.03S
LAFAYETTE      PTCLDY    72  69  90 SW3       29.98F
TERRE HAUTE    CLOUDY    73  69  87 S8        30.01F

$$

INZ030>032-037>040-046>048-054>057-064-065-220600-
CENTRAL INDIANA

CITY           SKY/WX    TMP DP  RH WIND       PRES   REMARKS
CP ATTERBURY +   N/A     70  68  94 E3        30.03F FOG
FRANKFORT +    MOCLDY    72  70  94 CALM      30.02F
GREENWOOD *+   CLEAR    N/A N/A N/A S3        30.03F
INDIANAPOLIS   CLOUDY    74  71  91 S8        30.00F
-EAGLE CREEK   CLOUDY    74  70  87 CALM      30.00F
KOKOMO +       PTCLDY    72  69  90 S6        30.00F
MARION +       CLEAR     72  70  94 S6        30.00F
MT COMFORT *+  CLEAR     72  70  94 S5        30.03F
SHELBYVILLE    CLOUDY    74  69  85 S7        30.02F
ZIONSVILLE +   CLOUDY    71  69  95 S6        30.02F

$$

INZ033-034-041-042-049-050-058-059-220600-
EAST CENTRAL INDIANA

CITY           SKY/WX    TMP DP  RH WIND       PRES   REMARKS
MUNCIE         CLEAR     76  68  76 S8        30.02F
RICHMOND +     CLOUDY    70  70 100 S6        30.07F

$$

INZ060-061-067>069-081>083-085>088-220600-
SOUTHWEST INDIANA

CITY           SKY/WX    TMP DP  RH WIND       PRES   REMARKS
EVANSVILLE     CLEAR     77  71  82 S6        30.03F
HUNTINGBURG +  PTCLDY    72  71  97 SE5       30.04F
WASHINGTON +   CLEAR     71  69  93 MISG      30.01F

$$

INZ062-063-066-070>080-084-089>092-220600-
SOUTH CENTRAL AND SOUTHEAST INDIANA

CITY           SKY/WX    TMP DP  RH WIND       PRES   REMARKS
BEDFORD +      CLEAR     73  70  88 S3        30.03F
BLOOMINGTON    PTCLDY    76  68  76 S9        30.03F
MADISON *+     PTCLDY    75  70  83 S6        30.07F
NORTH VERNON + MOCLDY    75  68  78 S6        30.05F
SEYMOUR +      CLOUDY    75  70  83 CALM      30.03F

$$





USA.gov is the U.S. government's official web portal to all federal, state and local government web resources and services.